Powrót do katalogu

ONEWEB-0258

AktywnyŁącznośćPO
NORAD 48976·PAYLOAD·🇬🇧 United Kingdom

Wystrzelony Jul 1, 2021 z Vostochny Cosmodrome

Loading…

Następne Przeloty (najbliższe 24 godziny)

TLE

ŚwieżeSource: CelesTrak SupGP

Epoka: Sep 14, 2026, 17:05 UTC

1 48976C 21060K   26257.71233056  .00003296  00000+0  86331-2 0  2571
2 48976  87.9145 211.0053 0002047  79.0810 316.8396 13.16591999    10

Śledź ONEWEB-0258 w czasie rzeczywistym z AllMySat

Download on the App Store